Zurück zum Katalog

STARLINK-3261

AktivKommunikationVLEO
NORAD 50193·PAYLOAD·🇺🇸 United States

Gestartet Dec 18, 2021 von Vandenberg Space Force Base

Loading…

Nächste Überflüge (nächste 24 Stunden)

TLE

AktuellSource: CelesTrak SupGP

Epoche: Sep 14, 2026, 20:53 UTC

1 50193C 21125AP  26257.87062500 -.00019746  00000+0 -63503-3 0  2574
2 50193  53.1566  99.0492 0001335  91.9141 337.8459 15.31708993    12

Verfolge STARLINK-3261 in Echtzeit mit AllMySat

Download on the App Store